{"data":{"norad_id":67644,"epoch":"2026-05-25T04:04:37.968096Z","epoch_age_seconds":54132,"freshness":"FRESH","line1":"1 67644U 26020AD  26145.16988389  .00015506  00000+0  57133-3 0  9995","line2":"2 67644  43.0025  67.5617 0001248 271.8277  88.2432 15.27606962 17812","mean_motion":15.27606962,"eccentricity":0.0001248,"inclination_deg":43.0025,"raan_deg":67.5617,"arg_perigee_deg":271.8277,"mean_anomaly_deg":88.2432,"bstar":0.00057133,"rev_number":1781,"period_min":94.265084921759,"perigee_km":482.11209735024,"apogee_km":483.82462924892,"semimajor_km":6861.1053632996,"source":"CELESTRAK","updated_at":"2026-05-25T13:38:21.655571Z"}}